Starlink 30172

operational
NORAD ID: 57410 Int'l Des: 2023-102 Owner: SPXS Country: US Constellation: starlink
LEOCIRCULAR

关于 Starlink 30172

正在加载描述...

实时位置

正在加载3D地球...

即将过境

高度历史

Altitude vs Time

uPlot chart will show altitude changes over time

两行轨道根数

1 57410U 23102G 25259.96385120 -.00000821 00000-0 -45715-4 0 9991
2 57410 43.0019 112.8267 0001072 273.2785 86.7935 15.02529319120106
Epoch: Sep 16, 2025 • Age: 13 hours

当前状态

高度 558.3 km
速度 7.59 km/s
星下点 13.07°N, 52.14°W
发射日期 Jul 19, 2023
运行时间 2.1 years
类型 internet

技术详情

分类 Payload
质量 730.00 kg
干质量 700.00 kg
总质量 730.00 kg
长度 0.30 m
直径 4.10 m
跨度 29.00 m
形状 Box + pan
制造商 SPXS
平台类型 Starlink V2M
阶段状态 In Orbit
所有者/国家 SPXS/US

大型星座

Loading constellations...